Wind_Speed
32 30 28 27 24 23 21 21 21 21 22 22 23 24 25 26 27 27 27 27 28 30 32 32 33 33 34 35 35 35 34 34 33 32 32 31 30 30 30 33 35 36 38
30 28 27 26 25 24 24 23 23 24 25 25 26 27 27 28 29 29 29 30 31 32 33 33 34 36 37 36 35 33 31 30 31 30 30 29 29 28 30 31 31 34 36
26 26 25 25 25 26 26 25 25 25 27 28 29 30 30 29 30 31 32 33 33 33 33 34 36 37 37 34 33 30 30 30 29 28 29 30 29 30 31 31 33 34 35
25 24 25 26 27 27 27 27 27 27 28 30 30 31 32 33 33 33 33 33 33 34 35 36 36 34 33 32 31 31 32 32 32 32 33 32 32 33 33 34 36 37 38
26 25 25 26 27 28 28 28 27 28 29 31 32 33 35 36 36 36 35 35 34 34 36 37 35 33 33 32 32 33 33 35 36 36 37 37 37 38 38 38 39 41 43
25 25 25 26 28 28 29 30 29 30 32 34 35 36 38 39 39 40 38 37 37 37 37 37 36 35 35 35 35 36 37 38 39 40 40 40 41 42 43 44 44 45 47
24 25 25 26 27 28 29 30 31 33 34 37 38 39 40 41 42 42 41 40 39 39 39 39 38 38 37 38 39 40 41 41 41 42 44 45 45 45 46 47 48 49 51
23 24 24 25 27 28 29 30 32 34 35 37 39 40 40 41 42 42 42 41 41 41 41 41 41 41 41 42 42 42 43 43 44 46 48 48 49 49 50 51 52 54 56
23 23 24 26 27 28 29 30 32 33 35 37 38 39 40 41 42 42 42 42 43 43 44 44 44 43 43 44 44 45 45 46 46 48 50 51 51 52 53 54 54 55 56
24 25 26 27 28 29 30 31 32 34 36 37 39 40 41 42 43 43 44 44 45 45 45 44 45 46 46 47 46 46 47 48 48 50 52 53 54 54 54 54 55 57 58
27 27 28 30 31 32 33 34 35 36 37 38 40 41 42 43 43 44 45 46 45 46 46 46 47 48 48 48 48 48 48 49 50 51 52 53 53 53 54 55 56 57 57
27 28 29 31 32 33 35 36 37 38 39 40 41 41 42 43 44 44 45 45 45 46 47 47 48 48 49 49 49 50 49 50 51 52 52 53 53 53 54 55 55 56 56
26 28 29 30 32 33 35 36 37 38 39 40 40 41 41 42 43 44 44 45 46 46 47 47 48 48 49 50 50 50 50 51 51 52 52 52 52 52 52 52 52 53 52
26 28 29 31 33 34 34 36 36 36 37 37 38 39 40 41 42 43 44 44 45 45 45 46 46 47 48 49 49 50 50 50 50 50 50 49 49 50 49 49 48 48 47
27 28 30 32 33 33 34 34 35 36 36 37 38 38 39 40 41 41 42 43 43 44 44 44 45 46 46 47 48 48 48 48 48 47 47 48 47 47 46 45 44 44 43
27 28 30 31 31 31 32 33 34 35 35 36 36 37 38 38 38 39 39 39 40 40 41 42 43 43 44 44 45 45 45 45 45 46 46 45 44 43 42 41 40 39 37
26 26 27 28 28 29 30 30 31 32 33 33 33 34 34 34 35 35 35 36 37 38 39 40 40 41 42 42 43 43 42 42 42 42 41 39 37 36 34 33 32 32 31
24 24 25 26 26 26 27 28 29 29 29 29 29 29 29 30 31 32 32 33 34 35 36 37 38 38 38 39 38 37 37 36 35 34 32 30 29 28 28 27 26 26 25
23 24 23 24 24 24 25 25 25 26 26 26 26 26 27 27 28 29 30 30 31 31 32 33 33 34 34 34 33 33 31 30 28 26 25 23 22 21 21 20 19 19 18
22 23 23 23 24 23 23 24 24 23 23 23 24 24 25 25 26 26 27 27 27 28 29 29 30 29 29 28 27 25 24 23 21 20 18 16 16 15 15 14 14 13 13
20 21 22 22 22 22 22 22 21 21 21 22 22 23 23 23 23 24 24 24 24 24 25 25 25 24 23 23 21 20 19 18 16 15 14 13 13 13 13 12 11 11 11
18 19 19 19 19 19 19 19 19 19 20 20 20 20 21 21 21 21 20 20 20 21 21 21 20 19 19 18 17 16 16 14 13 12 12 12 12 12 13 13 12 11 11
16 16 16 17 17 17 17 17 18 18 18 18 18 19 19 18 18 18 17 17 17 17 18 17 17 16 16 15 14 14 12 11 11 11 11 12 12 13 13 13 13 12 11
14 15 15 15 16 16 16 16 16 16 17 17 17 17 17 16 16 15 15 15 15 15 15 14 13 13 12 11 11 11 10 10 10 10 11 11 12 13 13 13 13 13 12
14 15 15 15 15 15 15 15 15 15 15 15 16 15 15 14 14 13 13 12 13 13 12 12 11 11 10 10 9 9 9 9 10 10 10 11 11 12 12 12 12 12 11
15 15 14 14 14 14 14 14 14 14 13 13 13 13 13 12 12 11 10 10 10 10 10 10 10 9 9 9 9 9 9 9 9 9 10 10 11 11 11 11 11 11 11
Wind_Direction
239 240 236 239 240 241 244 248 252 256 258 261 263 265 267 268 270 272 274 277 278 276 276 279 281 284 285 287 290 290 294 292 295 296 294 292 286 282 278 277 275 274 275
236 235 236 237 237 240 245 248 253 255 258 260 261 264 265 267 270 272 275 278 279 281 278 281 282 284 286 287 291 293 297 296 296 296 294 292 286 283 279 278 276 274 274
234 233 234 238 241 243 246 251 253 257 260 263 264 265 266 269 273 274 278 281 282 281 283 285 285 285 288 290 292 297 298 297 294 293 293 290 286 282 280 277 275 275 276
243 239 238 242 243 244 246 249 254 258 261 265 267 270 273 273 276 279 281 284 286 285 286 288 288 291 293 297 297 297 299 296 294 293 292 289 286 284 281 278 276 275 276
247 244 243 247 249 250 251 253 256 261 265 269 272 274 277 279 280 280 282 284 288 289 290 293 291 292 295 297 299 300 298 296 293 292 291 287 285 284 282 278 276 275 275
247 247 250 251 253 255 257 260 261 263 268 274 276 276 279 282 282 285 287 289 291 293 294 294 295 297 297 296 297 296 295 293 291 291 289 288 286 282 280 278 276 275 275
246 249 251 253 256 258 261 265 267 268 270 273 275 277 279 281 284 288 289 290 291 293 297 297 296 297 297 296 295 294 292 291 289 287 287 287 285 282 279 278 277 276 276
249 251 251 254 257 260 263 264 266 268 271 273 275 277 281 282 284 287 289 291 293 294 296 296 295 295 294 294 294 292 291 289 287 286 285 285 284 282 280 278 276 276 277
252 254 256 258 260 262 265 267 268 269 271 273 276 279 281 282 284 287 289 291 293 294 294 295 294 293 293 292 291 289 289 288 286 286 285 284 283 282 280 279 277 277 277
253 255 257 260 262 264 267 269 271 272 274 276 277 279 281 283 285 286 288 289 291 292 292 292 292 290 290 290 289 287 287 287 286 285 283 281 281 279 279 278 277 277 277
253 256 258 259 262 264 267 270 272 273 274 275 276 277 279 281 282 284 286 287 289 290 290 290 289 288 287 286 285 285 286 286 286 285 283 281 281 278 276 277 277 278 278
255 259 261 262 263 265 267 269 271 273 274 275 276 277 279 280 282 283 285 287 287 288 288 288 288 288 287 286 287 287 287 287 287 286 283 282 281 281 281 280 280 280 280
260 263 265 266 267 268 269 271 273 274 274 275 276 277 278 280 281 282 284 285 285 286 287 287 287 288 288 288 289 289 289 289 289 287 286 285 285 285 285 284 284 284 284
266 268 269 270 271 272 273 273 274 275 275 276 277 278 279 280 281 283 284 285 286 287 288 289 289 289 290 290 291 291 292 292 292 291 290 289 289 289 288 288 287 287 287
271 270 271 272 273 274 274 275 275 276 276 276 277 278 280 281 282 283 284 286 287 288 289 291 292 292 293 294 294 295 295 294 293 293 292 292 291 290 290 289 289 289 289
274 273 273 273 272 273 274 275 275 276 277 277 279 280 281 283 283 285 287 288 290 291 293 294 296 296 297 298 298 298 297 296 295 295 294 293 292 291 290 290 290 290 290
278 277 276 275 276 277 277 276 276 277 278 279 280 282 283 284 286 288 289 292 294 296 296 298 299 300 300 300 300 300 299 299 299 298 297 296 295 293 292 292 292 291 291
282 282 280 277 276 277 279 280 280 281 282 282 284 285 286 288 289 291 294 296 297 298 300 301 302 303 303 303 303 303 303 304 304 303 302 302 300 299 297 295 295 294 295
282 281 280 280 280 282 283 284 284 285 286 286 287 289 290 291 293 295 297 299 300 301 303 304 305 305 306 305 306 306 307 308 309 309 308 307 307 307 306 304 303 303 303
281 280 282 282 283 284 286 288 290 289 289 290 292 293 294 295 296 298 300 302 303 304 306 307 308 310 310 311 312 313 314 315 316 317 318 318 319 319 320 320 320 321 320
288 286 286 287 287 288 289 290 290 290 291 292 294 295 296 297 298 300 302 304 305 307 310 312 314 316 317 320 322 323 325 327 329 331 333 336 338 339 340 340 340 341 340
293 292 291 290 289 290 291 291 291 291 292 293 295 297 298 299 301 303 304 306 308 312 315 317 320 323 325 327 329 331 332 337 344 349 353 356 359 2 2 359 357 355 352
297 295 295 294 294 293 293 292 292 292 293 295 297 298 299 300 302 303 305 308 311 315 319 322 324 327 330 333 335 339 345 355 2 6 10 13 15 13 10 7 6 5 2
306 303 300 299 299 297 295 295 295 295 296 296 297 298 298 300 302 304 307 309 312 317 322 325 328 331 336 341 345 350 356 2 7 9 10 11 12 10 8 5 4 3 2
315 310 305 303 302 302 302 302 302 300 299 298 298 299 300 302 303 304 307 311 315 319 325 333 337 340 345 352 357 2 5 7 8 9 8 9 8 4 1 0 359 357 355
324 319 313 310 308 307 306 305 303 302 303 303 303 302 302 303 303 305 308 313 319 325 332 339 345 349 354 357 360 3 7 9 9 8 6 5 1 359 357 354 352 351 351
Height
5830 5831 5833 5837 5842 5844 5846 5847 5849 5851 5853 5854 5856 5857 5858 5858 5858 5858 5859 5859 5859 5858 5858 5858 5857 5857 5856 5856 5855 5853 5852 5850 5848 5846 5844 5843 5842 5841 5840 5839 5838 5837 5837
5824 5826 5828 5833 5836 5839 5841 5843 5845 5847 5848 5849 5850 5851 5852 5852 5852 5852 5853 5853 5852 5851 5851 5850 5850 5849 5848 5848 5847 5846 5844 5842 5841 5839 5837 5836 5835 5834 5832 5831 5831 5830 5829
5816 5820 5825 5829 5832 5835 5837 5839 5840 5842 5843 5844 5844 5845 5845 5846 5846 5846 5847 5846 5844 5844 5843 5842 5842 5841 5840 5840 5839 5838 5837 5835 5834 5831 5830 5829 5828 5827 5826 5824 5823 5822 5821
5816 5818 5821 5825 5827 5830 5832 5834 5835 5837 5838 5839 5839 5839 5840 5840 5840 5840 5840 5838 5837 5837 5836 5835 5834 5833 5832 5832 5831 5831 5829 5827 5826 5824 5823 5821 5819 5818 5817 5816 5815 5813 5811
5814 5815 5818 5821 5823 5825 5827 5828 5830 5831 5832 5833 5833 5833 5833 5833 5833 5832 5831 5831 5830 5829 5828 5828 5826 5825 5825 5824 5823 5823 5821 5819 5817 5815 5814 5811 5810 5809 5807 5806 5805 5803 5801
5811 5812 5815 5817 5819 5821 5822 5823 5824 5826 5827 5827 5827 5827 5827 5826 5825 5825 5824 5824 5822 5822 5820 5819 5818 5818 5816 5816 5815 5814 5812 5810 5808 5806 5804 5802 5800 5798 5797 5795 5793 5792 5789
5807 5809 5811 5813 5815 5816 5817 5818 5819 5820 5821 5821 5821 5821 5820 5819 5818 5817 5817 5817 5815 5814 5813 5811 5810 5809 5808 5806 5805 5804 5802 5800 5798 5796 5793 5791 5789 5787 5785 5783 5781 5779 5776
5803 5805 5806 5808 5809 5811 5812 5813 5813 5814 5814 5815 5815 5814 5813 5812 5811 5810 5809 5808 5807 5806 5804 5802 5801 5799 5798 5796 5795 5793 5791 5789 5786 5784 5782 5779 5777 5774 5772 5769 5767 5764 5761
5798 5799 5801 5802 5804 5805 5805 5806 5806 5807 5807 5807 5807 5806 5806 5805 5803 5802 5801 5799 5798 5796 5794 5792 5791 5789 5787 5785 5783 5782 5779 5777 5775 5772 5769 5766 5763 5761 5758 5755 5752 5750 5747
5793 5794 5795 5797 5798 5798 5799 5799 5800 5800 5800 5800 5799 5799 5798 5796 5795 5793 5792 5790 5788 5786 5784 5782 5780 5778 5776 5774 5772 5770 5767 5765 5762 5759 5756 5753 5750 5746 5743 5740 5737 5734 5731
5788 5789 5789 5790 5791 5792 5792 5792 5792 5792 5792 5792 5791 5790 5789 5787 5786 5784 5782 5780 5778 5776 5774 5771 5769 5767 5765 5762 5760 5757 5754 5751 5748 5745 5742 5739 5736 5732 5728 5725 5721 5717 5713
5782 5783 5783 5784 5784 5785 5785 5785 5785 5784 5784 5783 5782 5781 5779 5778 5776 5774 5772 5770 5768 5766 5764 5761 5759 5756 5753 5750 5747 5744 5741 5738 5735 5731 5728 5724 5721 5717 5713 5709 5705 5701 5697
5776 5776 5776 5776 5777 5777 5777 5776 5776 5775 5774 5773 5772 5771 5769 5768 5766 5764 5762 5760 5758 5755 5753 5750 5747 5745 5742 5738 5735 5732 5728 5724 5721 5717 5713 5709 5706 5702 5698 5694 5690 5686 5682
5769 5769 5769 5768 5768 5768 5767 5767 5766 5765 5764 5763 5762 5761 5759 5758 5756 5754 5752 5750 5748 5745 5742 5739 5736 5733 5730 5727 5723 5719 5715 5711 5707 5703 5699 5695 5691 5687 5683 5680 5676 5672 5668
5762 5761 5761 5760 5760 5759 5758 5757 5756 5756 5755 5754 5753 5751 5750 5748 5746 5744 5742 5740 5737 5735 5732 5729 5726 5722 5718 5714 5710 5706 5702 5698 5693 5689 5685 5681 5677 5673 5669 5666 5662 5659 5655
5754 5753 5752 5751 5751 5750 5749 5749 5747 5746 5745 5744 5743 5742 5740 5738 5737 5735 5733 5730 5728 5725 5722 5719 5715 5711 5707 5703 5699 5694 5690 5685 5681 5676 5672 5668 5664 5660 5656 5653 5649 5647 5644
5746 5745 5744 5743 5742 5741 5741 5740 5739 5738 5737 5735 5734 5733 5731 5730 5728 5726 5724 5722 5719 5716 5713 5709 5705 5701 5697 5692 5688 5683 5678 5674 5669 5664 5659 5655 5652 5648 5645 5642 5639 5636 5633
5739 5738 5737 5736 5735 5734 5733 5732 5731 5730 5729 5727 5726 5725 5723 5722 5720 5718 5716 5713 5710 5707 5704 5700 5696 5691 5687 5682 5678 5673 5668 5663 5658 5653 5649 5645 5642 5639 5636 5633 5631 5628 5626
5733 5732 5731 5730 5728 5727 5726 5725 5724 5723 5721 5720 5719 5718 5716 5714 5713 5711 5708 5706 5703 5699 5696 5692 5688 5683 5678 5674 5669 5664 5659 5655 5650 5646 5642 5639 5636 5632 5629 5626 5624 5622 5620
5727 5726 5725 5723 5722 5721 5720 5719 5718 5716 5715 5714 5712 5711 5709 5708 5706 5704 5701 5699 5696 5692 5689 5685 5680 5676 5671 5666 5662 5657 5653 5649 5645 5641 5637 5635 5632 5629 5625 5623 5620 5618 5617
5722 5721 5719 5718 5717 5715 5714 5713 5712 5710 5709 5708 5706 5705 5703 5701 5699 5697 5695 5692 5689 5686 5683 5679 5674 5670 5666 5661 5657 5653 5649 5645 5642 5638 5635 5632 5629 5627 5624 5621 5619 5617 5615
5717 5716 5714 5713 5711 5710 5709 5707 5706 5705 5703 5702 5701 5699 5697 5695 5694 5692 5689 5687 5684 5681 5678 5674 5670 5666 5662 5658 5654 5651 5647 5644 5640 5637 5634 5632 5629 5626 5623 5621 5619 5617 5615
5713 5712 5710 5708 5707 5705 5704 5702 5701 5699 5698 5697 5695 5694 5692 5690 5688 5687 5685 5682 5680 5677 5674 5671 5667 5663 5660 5656 5652 5649 5646 5643 5640 5638 5635 5632 5630 5627 5624 5622 5619 5617 5615
5710 5708 5706 5704 5702 5701 5699 5697 5696 5694 5693 5692 5690 5688 5687 5685 5684 5682 5680 5678 5676 5674 5671 5668 5665 5662 5658 5655 5652 5649 5646 5644 5641 5638 5636 5633 5630 5628 5625 5623 5620 5618 5615
5707 5704 5702 5700 5698 5696 5695 5693 5691 5690 5688 5687 5685 5684 5682 5681 5680 5678 5676 5675 5673 5671 5668 5666 5663 5660 5657 5655 5652 5649 5647 5644 5642 5639 5637 5634 5632 5629 5626 5624 5621 5618 5616
5704 5701 5698 5696 5694 5692 5691 5689 5687 5685 5684 5682 5681 5679 5678 5677 5676 5674 5673 5671 5670 5668 5666 5664 5662 5659 5657 5655 5652 5650 5648 5645 5642 5640 5637 5635 5632 5629 5627 5624 5621 5618 5616